Regional Weather Roundup
Issued by NWS

Home | Current Version | Previous Version | Graphics & Text | Print | Product List | Glossary Off
Versions: 1 2 3 4 5 6 7 8 9 10 11 12 13 14 15 16 17 18 19 20 21 22 23 24 25 26 27 28 29 30 31 32 33 34 35 36 37 38 39 40 41 42 43 44 45 46 47 48 49 50

000
ASUS45 KCYS 241310
RWRWY

WYOMING REGIONAL WEATHER ROUNDUP
NATIONAL WEATHER SERVICE CHEYENNE WY
600 AM MST FRI NOV 24 2017

NOTE:  "FAIR" INDICATES FEW OR NO CLOUDS BELOW 12,000 FEET
WITH NO SIGNIFICANT WEATHER AND/OR OBSTRUCTIONS TO VISIBILITY.

WYZ001-241400-
YELLOWSTONE NATIONAL PARK

CITY           SKY/WX    TMP DP  RH WIND       PRES   REMARKS
LK YELLOWSTONE   N/A     35  30  82 W8G20     29.91R WCI  29
W YELLOWSTONE  NOT AVBL

$$
WYZ002>013-054>058-071-098>099-241400-
NORTHERN WYOMING

CITY           SKY/WX    TMP DP  RH WIND       PRES   REMARKS
JACKSON        LGT RAIN  45  35  68 SW23G31     N/A
CODY           FAIR      45  39  79 E3        29.80R
GREYBULL       CLOUDY    49  41  74 N15       29.76R
WORLAND        FAIR      47  38  71 N17G24    29.76R
SHERIDAN       LGT RAIN  46  43  89 NW16      29.75R
BUFFALO        CLOUDY    46  36  68 NW23G32   29.76R
GILLETTE       CLOUDY    48  38  68 NW30G37   29.73R
HULETT         LGT RAIN  46  41  81 NW9G25    29.75R
NEWCASTLE      FAIR      46  32  57 W23G32    29.68R

$$
WYZ014>020-022>026-101>103-241400-
CENTRAL WYOMING

CITY           SKY/WX    TMP DP  RH WIND       PRES   REMARKS
BIG PINEY      FAIR      38  28  67 W12       29.95F WCI  30
PINEDALE       FAIR      34  32  93 CALM      29.96F
DUBOIS         LGT RAIN  37  32  81 NW13      29.82S WCI  29
LANDER         FAIR      52  28  39 VRB6      29.81F
RIVERTON       FAIR      47  29  49 W10       29.79F
CASPER         FAIR      50  32  50 SW21      29.78R
DOUGLAS        FAIR      56  33  42 W31G46    29.71S

$$
WYZ021-027>030-104>119-241400-
SOUTHERN WYOMING

CITY           SKY/WX    TMP DP  RH WIND       PRES   REMARKS
EVANSTON       FAIR      44  31  60 W21       30.01S
KEMMERER       FAIR      36  30  80 SW6       30.00F WCI  31
FORT BRIDGER   PTSUNNY   42  31  65 SW8       30.04S
ROCK SPRINGS   FAIR      41  29  62 S8        29.99S
DIXON          FAIR      43  29  57 SW7       30.03F
RAWLINS        LGT RAIN  45  30  55 W26G36    29.94S
SARATOGA       FAIR      39  28  65 S13       29.98F WCI  32
LARAMIE        FAIR      46  27  47 W24G33    29.89S
CHEYENNE       FAIR      53  27  36 W23G32    29.81F
TORRINGTON     FAIR      55  35  47 W10       29.72R
PINE BLUFFS    FAIR      48  27  43 W6        29.82R

$$



USA.gov is the U.S. government's official web portal to all federal, state and local government web resources and services.